Flag for Netherlands Weather past 2 weeks in Montfoort, Netherlands

Now
54 °F

Partly cloudy.


Feels Like: 52 °F
Forecast: 46 / 59 °F
Wind: 6 mph from West

Location: Amsterdam Schiphol Airport

Current Time: May 25, 2015 at 2:15:39 AM

Latest Report: May 25, 2015 at 1:25 AM


Visibility: 4 mi

Pressure: 30.04 "Hg

Humidity: 100%

Dew point: 54 °F

Location of MontfoortLocation

Historic Weather in Montfoort — Graph

°F

Montfoort temperature yesterday

Maximum temperature yesterday: 63 °F (at 1:25 PM)
Minimum temperature yesterday: 41 °F (at 2:25 AM)
Average temperature yesterday: 53 °F

Past Weeks' High & Low Weather Summary

 TemperatureHumidityPressure
High75 °F (May 11, 1:55 PM)100% (May 10, 6:55 AM)30.33 "Hg (May 10, 6:55 AM)
Low41 °F (May 10, 5:55 AM)30% (May 24, 5:25 PM)29.56 "Hg (May 19, 4:25 AM)
Average54 °F73%30.07 "Hg
* Reported May 10 12:25 AM — May 25 12:55 AM, Montfoort, Weather by CustomWeather, © 2015

Note: Actual official high and low records may vary slightly from our data, if they occured in-between our weather recording intervals... More about our weather records

Advertising

Montfoort weather history for previous 24 hours

 ConditionsComfort  
Time TempWeatherWind HumidityBarometerVisibility
12:55 AM
Mon, May 25
54 °FPartly cloudy.7 mph100%30.04 "Hg2 mi
12:25 AM54 °FPartly cloudy.6 mph94%30.04 "Hg4 mi
11:55 PM
Sun, May 24
54 °FPartly cloudy.6 mph94%30.04 "HgN/A
11:25 PM54 °FPartly cloudy.5 mph94%30.04 "HgN/A
10:55 PM54 °FPartly cloudy.9 mph88%30.04 "HgN/A
10:25 PM54 °FPassing clouds.6 mph88%30.04 "HgN/A
9:55 PM54 °FLight rain. Passing clouds.9 mph88%30.04 "HgN/A
9:25 PM54 °FLight rain. Passing clouds.10 mph88%30.04 "HgN/A
8:55 PM55 °FLight rain. Passing clouds.12 mph72%30.04 "HgN/A
8:25 PM57 °FLight rain. Partly sunny.10 mph63%30.04 "HgN/A
7:55 PM57 °FScattered clouds.12 mph63%30.07 "HgN/A
7:25 PM59 °FPassing clouds.10 mph63%30.07 "HgN/A
6:55 PM59 °FPassing clouds.12 mph59%30.07 "HgN/A
6:25 PM61 °FPassing clouds.12 mph55%30.07 "HgN/A
5:55 PM63 °FPassing clouds.13 mph42%30.07 "HgN/A
5:25 PM63 °FPassing clouds.10 mph30%30.07 "HgN/A
4:55 PM63 °FPassing clouds.12 mph39%30.07 "HgN/A
4:25 PM63 °FPassing clouds.14 mph45%30.07 "HgN/A
3:55 PM63 °FPassing clouds.9 mph52%30.07 "HgN/A
3:25 PM63 °FPassing clouds.9 mph52%30.07 "HgN/A
2:55 PM63 °FSunny.6 mph52%30.09 "Hg10 mi
2:25 PM63 °FSunny.6 mph49%30.09 "Hg10 mi
1:25 PM63 °FSunny.7 mph52%30.09 "Hg10 mi
12:55 PM61 °FSunny.5 mph48%30.09 "Hg10 mi
12:25 PM59 °FSunny.7 mph51%30.12 "Hg10 mi
10:55 AM55 °FPassing clouds.5 mph63%30.12 "HgN/A
10:25 AM55 °FPassing clouds.6 mph59%30.15 "HgN/A
9:55 AM54 °FPassing clouds.5 mph67%30.15 "HgN/A
9:25 AM52 °FPassing clouds.3 mph72%30.15 "HgN/A
8:55 AM52 °FPassing clouds.3 mph67%30.15 "HgN/A
8:25 AM50 °FPassing clouds.6 mph76%30.15 "HgN/A
7:55 AM48 °FSunny.6 mph82%30.15 "Hg10 mi
7:25 AM48 °FSunny.3 mph87%30.15 "Hg10 mi
6:55 AM45 °FFog.1 mph87%30.15 "HgN/A
6:25 AM41 °FFog.No wind100%30.15 "HgN/A
5:55 AM41 °FFog.1 mph93%30.15 "HgN/A
4:55 AM43 °FFog.1 mph93%30.15 "HgN/A
4:25 AM41 °FClear.1 mph100%30.18 "Hg10 mi
3:55 AM43 °FClear.1 mph87%30.18 "Hg10 mi
3:25 AM43 °FClear.No wind87%30.18 "Hg10 mi
2:55 AM45 °FClear.No wind87%30.18 "Hg10 mi
2:25 AM41 °FClear.2 mph87%30.18 "Hg10 mi
Weather by CustomWeather, © 2015

See weather overviewHow to use our weather pages